TimeMDT,TemperatureF,Dew PointF,Humidity,Sea Level PressureIn,VisibilityMPH,Wind Direction,Wind SpeedMPH,Gust SpeedMPH,PrecipitationIn,Events,Conditions,WindDirDegrees,DateUTC
12:53 AM,37.9,33.1,83,30.28,-9999.0,West,6.9,-,N/A,,Partly Cloudy,260,2013-05-11 06:53:00
1:53 AM,39.0,34.0,82,30.26,-9999.0,SW,3.5,-,N/A,,Mostly Cloudy,230,2013-05-11 07:53:00
2:53 AM,36.0,32.0,86,30.25,-9999.0,Calm,Calm,-,N/A,,Clear,0,2013-05-11 08:53:00
3:53 AM,33.1,30.9,92,30.27,-9999.0,ESE,5.8,-,N/A,,Clear,110,2013-05-11 09:53:00
4:53 AM,34.0,30.9,89,30.28,-9999.0,South,3.5,-,N/A,,Clear,180,2013-05-11 10:53:00
5:53 AM,34.0,32.0,92,30.28,10.0,South,3.5,-,N/A,,Overcast,180,2013-05-11 11:53:00
6:53 AM,36.0,33.1,89,30.27,-9999.0,South,3.5,-,N/A,,Overcast,190,2013-05-11 12:53:00
7:53 AM,42.1,36.0,79,30.27,-9999.0,South,6.9,-,N/A,,Mostly Cloudy,180,2013-05-11 13:53:00
8:53 AM,45.0,34.0,65,30.28,-9999.0,SSW,6.9,-,N/A,,Mostly Cloudy,200,2013-05-11 14:53:00
9:53 AM,50.0,36.0,59,30.26,10.0,Variable,3.5,-,N/A,,Mostly Cloudy,0,2013-05-11 15:53:00
10:53 AM,53.1,34.0,48,30.23,10.0,NW,8.1,-,0.00,,Partly Cloudy,320,2013-05-11 16:53:00
11:53 AM,54.0,34.0,47,30.23,10.0,North,6.9,-,N/A,,Overcast,350,2013-05-11 17:53:00
12:53 PM,57.9,32.0,37,30.19,10.0,WNW,9.2,-,N/A,,Mostly Cloudy,290,2013-05-11 18:53:00
1:53 PM,61.0,25.0,25,30.15,10.0,NW,16.1,26.5,N/A,,Scattered Clouds,320,2013-05-11 19:53:00
2:53 PM,63.0,24.1,23,30.13,10.0,NW,20.7,26.5,N/A,,Partly Cloudy,320,2013-05-11 20:53:00
3:53 PM,53.1,30.0,41,30.22,7.0,North,13.8,54.1,0.01,Rain,Light Rain,360,2013-05-11 21:53:00
4:53 PM,57.9,28.0,32,30.16,10.0,WNW,18.4,24.2,0.00,,Scattered Clouds,300,2013-05-11 22:53:00
5:24 PM,60.8,26.6,27,30.31,10.0,North,16.1,25.3,N/A,,Partly Cloudy,10,2013-05-11 23:24:00
5:53 PM,61.0,28.0,29,30.13,10.0,North,10.4,-,N/A,,Clear,10,2013-05-11 23:53:00
6:53 PM,59.0,27.0,29,30.12,10.0,NE,12.7,18.4,N/A,,Mostly Cloudy,40,2013-05-12 00:53:00
7:53 PM,53.1,24.1,32,30.12,10.0,NNW,11.5,-,N/A,,Clear,330,2013-05-12 01:53:00
8:53 PM,45.0,27.0,49,30.16,10.0,NW,6.9,-,N/A,,Clear,310,2013-05-12 02:53:00
9:53 PM,44.1,26.1,49,30.14,10.0,Calm,Calm,-,N/A,,Partly Cloudy,0,2013-05-12 03:53:00
10:53 PM,41.0,37.0,86,30.14,10.0,South,8.1,-,N/A,,Clear,190,2013-05-12 04:53:00
11:53 PM,42.1,35.1,76,30.15,-9999.0,West,5.8,-,N/A,,Overcast,260,2013-05-12 05:53:00